CST,Max TemperatureF,Mean TemperatureF,Min TemperatureF,Max Dew PointF,MeanDew PointF,Min DewpointF,Max Humidity, Mean Humidity, Min Humidity, Max Sea Level PressureIn, Mean Sea Level PressureIn, Min Sea Level PressureIn, Max VisibilityMiles, Mean VisibilityMiles, Min VisibilityMiles, Max Wind SpeedMPH, Mean Wind SpeedMPH, Max Gust SpeedMPH,PrecipitationIn, CloudCover, Events, WindDirDegrees
2013-2-1,23,6,-11,18,-2,-20,86,71,62,30.34,30.19,29.98,10,10,9,20,9,24,0.00,5,,221
2013-2-2,32,20,8,28,12,3,93,78,62,30.17,30.06,29.95,10,9,1,17,9,26,0.00,5,,297
2013-2-3,33,22,12,23,16,7,86,73,60,30.13,30.00,29.76,10,10,3,15,10,24,0.00,3,,243
2013-2-4,24,20,15,19,14,9,93,75,59,30.02,29.91,29.76,10,10,10,15,7,21,0.00,4,,11
2013-2-5,39,29,19,30,24,14,93,80,70,30.09,29.90,29.74,10,9,5,15,9,23,0.00,4,,293
2013-2-6,39,28,17,34,26,12,93,81,75,30.09,29.98,29.89,10,10,8,18,6,29,0.00,4,,155
2013-2-7,35,30,26,34,25,19,93,87,74,30.21,30.03,29.89,10,6,1,17,7,25,0.00,7,,354
2013-2-8,28,24,21,23,20,18,86,80,74,30.34,30.28,30.21,10,10,10,13,7,18,0.00,7,,116
2013-2-9,37,32,26,30,25,21,93,83,75,30.22,30.02,29.81,10,8,1,20,12,28,0.00,7,,156
2013-2-10,41,34,28,39,32,25,100,90,80,29.80,29.44,29.23,10,6,2,23,15,34,0.14,8,,171
2013-2-11,28,26,24,25,20,18,86,74,69,30.10,29.91,29.53,10,10,6,24,17,38,0.00,8,,297
2013-2-12,42,30,19,28,23,16,93,74,53,30.12,29.97,29.85,10,10,10,18,8,23,0.00,1,,245
2013-2-13,48,34,21,36,28,19,93,74,54,29.85,29.74,29.65,10,10,10,13,6,21,0.00,3,,254
2013-2-14,37,28,17,30,24,9,87,75,63,30.20,29.92,29.68,10,10,2,18,11,26,0.00,5,,314
2013-2-15,24,18,12,14,8,3,85,67,59,30.31,30.28,30.21,10,10,10,13,7,18,0.00,1,,333
2013-2-16,33,20,8,21,13,3,86,72,48,30.29,30.15,30.06,10,10,10,10,3,,0.00,0,,179
2013-2-17,42,30,19,28,21,12,86,68,53,30.05,29.85,29.59,10,10,10,18,10,29,0.00,0,,149
2013-2-18,37,24,10,30,20,1,86,71,58,29.92,29.69,29.55,10,10,4,21,12,34,0.00,4,,299
2013-2-19,17,9,1,3,-1,-8,79,62,49,30.37,30.16,29.93,10,10,7,23,13,37,0.00,0,,321
2013-2-20,23,10,-2,10,0,-9,78,64,46,30.42,30.35,30.29,10,10,10,14,6,,0.00,1,,59
2013-2-21,26,19,12,16,11,7,86,71,51,30.32,30.13,29.89,10,8,1,24,14,32,0.01,4,,82
2013-2-22,26,20,14,19,16,9,93,81,69,29.95,29.88,29.80,10,7,1,14,9,21,0.02,6,,330
2013-2-23,26,14,3,18,10,0,92,79,68,29.94,29.91,29.87,10,10,6,9,5,,0.00,1,,198
2013-2-24,33,19,5,27,17,0,93,82,72,30.07,30.00,29.91,8,6,4,8,3,,0.00,4,,112
2013-2-25,30,26,21,27,25,19,93,89,86,30.10,30.04,29.95,5,2,1,10,3,,0.00,7,,17
2013-2-26,32,28,23,25,22,19,93,83,74,29.94,29.84,29.78,8,4,2,15,11,21,0.00,3,,8
2013-2-27,32,26,19,25,20,16,86,77,69,30.01,29.88,29.81,10,9,3,15,10,25,0.00,4,,344
2013-2-28,30,24,17,25,20,12,86,79,69,30.18,30.12,30.01,10,10,9,13,8,18,0.00,7,,340